JAL785 PHNL-RJAA

Flight info

Callsign JAL785
Flight time N/A
Altitude 34000
Route KEOLA3 LILIA DCT DOGIF DCT 24N170W 26N180E/N0463F360 28N170E 30N160E 32N150E/N0456F380 FERAR OTR17 SMOLT Y824 OLVEK Y817 MENIX Y813 LUBLA
Aircraft B763/H-SDE3FGHIM3RWXY/LB1

Departure

Time 2026-04-30 21:37
Airport Daniel K. Inouye International Airport (PHNL)

Arrival

Time N/A
Airport Narita International Airport (RJAA)
Time Latitude Longitude Altitude Speed Heading
2026-04-30 20:20 21.32877 -157.92462 61 ft 0 kts
2026-04-30 21:27 21.32864 -157.92462 61 ft 2 kts
2026-04-30 21:27 21.32849 -157.92463 60 ft 2 kts
2026-04-30 21:28 21.32819 -157.92464 60 ft 2 kts
2026-04-30 21:28 21.32804 -157.92465 60 ft 2 kts
2026-04-30 21:28 21.32777 -157.92463 59 ft 2 kts 311°
2026-04-30 21:29 21.32772 -157.92451 59 ft 2 kts 264°
2026-04-30 21:29 21.32773 -157.92442 59 ft 0 kts 265°
2026-04-30 21:32 21.32773 -157.92490 59 ft 11 kts 270°
2026-04-30 21:32 21.32774 -157.92612 57 ft 21 kts 270°
2026-04-30 21:32 21.32756 -157.92763 56 ft 22 kts 249°
2026-04-30 21:32 21.32741 -157.92952 53 ft 28 kts 270°
2026-04-30 21:33 21.32741 -157.93164 52 ft 28 kts 269°
2026-04-30 21:33 21.32742 -157.93548 52 ft 24 kts 270°
2026-04-30 21:33 21.32742 -157.93716 53 ft 22 kts 270°
2026-04-30 21:34 21.32742 -157.93870 53 ft 20 kts 270°
2026-04-30 21:34 21.32742 -157.94141 52 ft 17 kts 270°
2026-04-30 21:34 21.32741 -157.94263 52 ft 15 kts 270°
2026-04-30 21:35 21.32695 -157.94324 52 ft 8 kts 178°
2026-04-30 21:35 21.32655 -157.94323 52 ft 4 kts 179°
2026-04-30 21:35 21.32627 -157.94323 52 ft 4 kts 179°
2026-04-30 21:35 21.32593 -157.94322 52 ft 6 kts 179°
2026-04-30 21:36 21.32551 -157.94308 52 ft 7 kts 139°
2026-04-30 21:36 21.32525 -157.94257 52 ft 9 kts 101°
2026-04-30 21:37 21.32525 -157.93133 49 ft 127 kts 90°
2026-04-30 21:37 21.32520 -157.92012 73 ft 172 kts 86°
2026-04-30 21:37 21.32506 -157.90652 443 ft 193 kts 89°
2026-04-30 21:37 21.32321 -157.89325 1518 ft 180 kts 110°
2026-04-30 21:38 21.31613 -157.88210 2217 ft 188 kts 124°
2026-04-30 21:38 21.30764 -157.87138 2709 ft 194 kts 124°
2026-04-30 21:38 21.29856 -157.85957 2980 ft 212 kts 124°
2026-04-30 21:38 21.28856 -157.84815 3609 ft 216 kts 140°
2026-04-30 21:39 21.27371 -157.84252 3986 ft 242 kts 176°
2026-04-30 21:39 21.25751 -157.84708 4722 ft 248 kts 211°
2026-04-30 21:39 21.24454 -157.85973 5170 ft 264 kts 228°
2026-04-30 21:39 21.23230 -157.87545 5545 ft 281 kts 229°
2026-04-30 21:40 21.21969 -157.89198 6027 ft 295 kts 235°
2026-04-30 21:40 21.21181 -157.91242 6652 ft 301 kts 264°
2026-04-30 21:40 21.21107 -157.93437 7493 ft 298 kts 272°
2026-04-30 21:40 21.21140 -157.95644 8086 ft 300 kts 272°
2026-04-30 21:41 21.21178 -157.97870 8689 ft 301 kts 272°
2026-04-30 21:41 21.21216 -158.00121 9210 ft 305 kts 272°
2026-04-30 21:41 21.21253 -158.02385 9804 ft 306 kts 272°
2026-04-30 21:41 21.21287 -158.04681 10330 ft 310 kts 272°
2026-04-30 21:42 21.21314 -158.06980 10893 ft 311 kts 272°
2026-04-30 21:42 21.21333 -158.09299 11389 ft 314 kts 272°
2026-04-30 21:42 21.21339 -158.11636 11936 ft 315 kts 272°
2026-04-30 21:42 21.21337 -158.13983 12452 ft 317 kts 272°
2026-04-30 21:43 21.21327 -158.16346 12908 ft 321 kts 272°
2026-04-30 21:43 21.21308 -158.18732 13409 ft 322 kts 272°
2026-04-30 21:43 21.21282 -158.21142 13918 ft 324 kts 272°
2026-04-30 21:43 21.21253 -158.23619 13989 ft 342 kts 272°
2026-04-30 21:44 21.21228 -158.26229 14072 ft 361 kts 272°
2026-04-30 21:44 21.21281 -158.28957 14182 ft 374 kts 281°
2026-04-30 21:44 21.21962 -158.31652 14487 ft 376 kts 298°
2026-04-30 21:44 21.23246 -158.34062 15066 ft 373 kts 304°
2026-04-30 21:45 21.24480 -158.36520 15559 ft 378 kts 300°
2026-04-30 21:45 21.25637 -158.39070 16099 ft 380 kts 298°
2026-04-30 21:45 21.26744 -158.41648 16581 ft 383 kts 298°
2026-04-30 21:45 21.27837 -158.44252 17137 ft 386 kts 297°
2026-04-30 21:46 21.28918 -158.46872 17766 ft 387 kts 298°
2026-04-30 21:46 21.30000 -158.49513 18304 ft 390 kts 297°
2026-04-30 21:46 21.31081 -158.52180 18877 ft 392 kts 298°
2026-04-30 21:46 21.32163 -158.54858 19390 ft 395 kts 298°
2026-04-30 21:47 21.33260 -158.57575 19926 ft 397 kts 298°
2026-04-30 21:47 21.34351 -158.60283 20459 ft 399 kts 298°
2026-04-30 21:47 21.35449 -158.63010 21018 ft 399 kts 298°
2026-04-30 21:47 21.36557 -158.65758 21415 ft 404 kts 298°
2026-04-30 21:48 21.37671 -158.68529 21981 ft 404 kts 298°
2026-04-30 21:48 21.38786 -158.71301 22416 ft 407 kts 298°
2026-04-30 21:48 21.39906 -158.74088 22864 ft 410 kts 298°
2026-04-30 21:48 21.41038 -158.76905 23286 ft 413 kts 298°
2026-04-30 21:49 21.42169 -158.79727 23834 ft 415 kts 298°
2026-04-30 21:49 21.43315 -158.82577 24347 ft 419 kts 298°
2026-04-30 21:49 21.44466 -158.85450 24894 ft 421 kts 298°
2026-04-30 21:49 21.45634 -158.88363 25377 ft 425 kts 299°
2026-04-30 21:50 21.46801 -158.91280 25923 ft 427 kts 299°
2026-04-30 21:50 21.47979 -158.94220 26337 ft 432 kts 299°
2026-04-30 21:50 21.49157 -158.97170 26942 ft 432 kts 299°
2026-04-30 21:50 21.50349 -159.00146 27238 ft 439 kts 299°
2026-04-30 21:51 21.51550 -159.03156 27785 ft 440 kts 299°
2026-04-30 21:51 21.52757 -159.06177 28224 ft 443 kts 299°
2026-04-30 21:51 21.53975 -159.09233 28718 ft 445 kts 299°
2026-04-30 21:51 21.55194 -159.12286 29164 ft 447 kts 299°
2026-04-30 21:52 21.56418 -159.15359 29591 ft 450 kts 299°
2026-04-30 21:52 21.57651 -159.18450 30010 ft 453 kts 298°
2026-04-30 21:52 21.58887 -159.21559 30430 ft 456 kts 298°
2026-04-30 21:52 21.60129 -159.24682 30842 ft 459 kts 299°
2026-04-30 21:53 21.61382 -159.27834 31198 ft 462 kts 298°
2026-04-30 21:53 21.62647 -159.31019 31681 ft 462 kts 298°
2026-04-30 21:53 21.63907 -159.34193 32075 ft 464 kts 298°
2026-04-30 21:53 21.65164 -159.37365 32505 ft 464 kts 298°
2026-04-30 21:54 21.66420 -159.40535 33046 ft 461 kts 298°
2026-04-30 21:54 21.67666 -159.43681 33641 ft 458 kts 298°
2026-04-30 21:54 21.68901 -159.46801 34148 ft 455 kts 298°
2026-04-30 21:54 21.70134 -159.49918 34108 ft 453 kts 298°
2026-04-30 21:55 21.72584 -159.56114 34128 ft 450 kts 298°
2026-04-30 21:55 21.75030 -159.62307 34126 ft 453 kts 298°
2026-04-30 21:56 21.77480 -159.68523 34124 ft 452 kts 297°
2026-04-30 21:56 21.79928 -159.74739 34126 ft 452 kts 297°
2026-04-30 21:57 21.82365 -159.80936 34122 ft 451 kts 297°
2026-04-30 21:57 21.84797 -159.87129 34116 ft 451 kts 297°
2026-04-30 21:58 21.87231 -159.93336 34121 ft 453 kts 297°
2026-04-30 21:58 21.89679 -159.99584 34117 ft 452 kts 297°
2026-04-30 21:59 21.92108 -160.05795 34126 ft 453 kts 297°
2026-04-30 22:00 21.95751 -160.15122 34126 ft 452 kts 297°
2026-04-30 22:00 21.99407 -160.24500 34125 ft 454 kts 297°
2026-04-30 22:01 22.01834 -160.30739 34122 ft 453 kts 297°
2026-04-30 22:01 22.04262 -160.36983 34129 ft 455 kts 297°
2026-04-30 22:02 22.06705 -160.43278 34130 ft 455 kts 297°
2026-04-30 22:02 22.09134 -160.49545 34128 ft 455 kts 296°
2026-04-30 22:03 22.11562 -160.55817 34148 ft 455 kts 296°
2026-04-30 22:03 22.13997 -160.62118 34143 ft 455 kts 296°
2026-04-30 22:04 22.16422 -160.68396 34148 ft 455 kts 296°
2026-04-30 22:05 22.20063 -160.77845 34151 ft 457 kts 296°
2026-04-30 22:05 22.22498 -160.84171 34157 ft 457 kts 296°
2026-04-30 22:06 22.24922 -160.90479 34152 ft 457 kts 296°
2026-04-30 22:06 22.28554 -160.99949 34156 ft 456 kts 296°
2026-04-30 22:07 22.30978 -161.06277 34159 ft 456 kts 296°
2026-04-30 22:07 22.33390 -161.12584 34157 ft 457 kts 296°
2026-04-30 22:08 22.35804 -161.18906 34152 ft 457 kts 296°
2026-04-30 22:08 22.38216 -161.25229 34153 ft 457 kts 295°
2026-04-30 22:09 22.40636 -161.31581 34160 ft 458 kts 295°
2026-04-30 22:09 22.43046 -161.37921 34158 ft 457 kts 295°
2026-04-30 22:10 22.45452 -161.44253 34158 ft 457 kts 295°
2026-04-30 22:10 22.47865 -161.50616 34159 ft 458 kts 295°
2026-04-30 22:11 22.51420 -161.60155 34158 ft 459 kts 293°
2026-04-30 22:12 22.53599 -161.66621 34163 ft 459 kts 293°
2026-04-30 22:12 22.55793 -161.73112 34161 ft 460 kts 293°
2026-04-30 22:13 22.57976 -161.79573 34161 ft 459 kts 293°
2026-04-30 22:13 22.60159 -161.86041 34161 ft 460 kts 293°
2026-04-30 22:14 22.62339 -161.92514 34160 ft 459 kts 292°
2026-04-30 22:14 22.64520 -161.98998 34157 ft 459 kts 292°
2026-04-30 22:15 22.66694 -162.05470 34160 ft 460 kts 292°
2026-04-30 22:15 22.68870 -162.11959 34162 ft 460 kts 292°
2026-04-30 22:16 22.71046 -162.18458 34162 ft 460 kts 293°
2026-04-30 22:17 22.75380 -162.31427 34161 ft 460 kts 292°
2026-04-30 22:17 22.78636 -162.41198 34156 ft 460 kts 292°
2026-04-30 22:18 22.81877 -162.50949 34153 ft 461 kts 292°
2026-04-30 22:19 22.85111 -162.60701 34152 ft 460 kts 292°
2026-04-30 22:20 22.88347 -162.70479 34148 ft 460 kts 292°
2026-04-30 22:20 22.91572 -162.80244 34144 ft 461 kts 292°
2026-04-30 22:21 22.93729 -162.86794 34147 ft 461 kts 292°
2026-04-30 22:21 22.95875 -162.93316 34144 ft 461 kts 292°
2026-04-30 22:22 22.98018 -162.99839 34142 ft 461 kts 292°
2026-04-30 22:22 23.00160 -163.06370 34147 ft 463 kts 292°
2026-04-30 22:23 23.02317 -163.12960 34140 ft 464 kts 292°
2026-04-30 22:23 23.04463 -163.19524 34145 ft 462 kts 292°
2026-04-30 22:24 23.06603 -163.26080 34142 ft 462 kts 292°
2026-04-30 22:24 23.08744 -163.32648 34150 ft 462 kts 292°
2026-04-30 22:25 23.10879 -163.39209 34155 ft 462 kts 292°
2026-04-30 22:25 23.13008 -163.45764 34159 ft 463 kts 292°
2026-04-30 22:26 23.16214 -163.55654 34154 ft 463 kts 292°
2026-04-30 22:27 23.18336 -163.62212 34157 ft 462 kts 292°
2026-04-30 22:27 23.21522 -163.72078 34157 ft 463 kts 292°
2026-04-30 22:28 23.24711 -163.81976 34165 ft 463 kts 292°
2026-04-30 22:29 23.27254 -163.95707 34156 ft 467 kts 281°
2026-04-30 22:31 23.30674 -164.20059 34164 ft 467 kts 281°
2026-04-30 22:32 23.33079 -164.37457 34161 ft 466 kts 281°
2026-04-30 22:33 23.35460 -164.54830 34164 ft 465 kts 281°
2026-04-30 22:35 23.37819 -164.72184 34168 ft 466 kts 280°
2026-04-30 22:36 23.40161 -164.89566 34169 ft 465 kts 280°
2026-04-30 22:37 23.42020 -165.03468 34170 ft 465 kts 280°
2026-04-30 22:38 23.43862 -165.17340 34170 ft 465 kts 280°
2026-04-30 22:39 23.45238 -165.27768 34167 ft 465 kts 280°
2026-04-30 22:40 23.47967 -165.48608 34168 ft 464 kts 280°
2026-04-30 22:41 23.50216 -165.65947 34172 ft 464 kts 280°
2026-04-30 22:43 23.52893 -165.86792 34171 ft 464 kts 280°
2026-04-30 22:44 23.54661 -166.00686 34176 ft 464 kts 280°
2026-04-30 22:45 23.57290 -166.21532 34172 ft 464 kts 280°
2026-04-30 22:47 23.59881 -166.42307 34172 ft 463 kts 280°
2026-04-30 22:48 23.61600 -166.56209 34180 ft 464 kts 279°
2026-04-30 22:49 23.64152 -166.77059 34180 ft 462 kts 279°
2026-04-30 22:51 23.66667 -166.97830 34181 ft 462 kts 279°
2026-04-30 22:52 23.67915 -167.08234 34169 ft 464 kts 279°
2026-04-30 22:53 23.69571 -167.22131 34168 ft 462 kts 279°
2026-04-30 22:53 23.70801 -167.32511 34170 ft 463 kts 279°
2026-04-30 22:55 23.72840 -167.49869 34167 ft 463 kts 279°
2026-04-30 22:56 23.74458 -167.63767 34168 ft 464 kts 279°
2026-04-30 22:57 23.76466 -167.81169 34169 ft 463 kts 278°
2026-04-30 22:58 23.78060 -167.95108 34167 ft 464 kts 278°
2026-04-30 22:59 23.80433 -168.16071 34168 ft 464 kts 278°